Simultaneous Nadir Overpasses (SNOs) Predictions

Prediction of SNOs between GOES-17 and METOP-B Satellite Orbit:

Table of predicted SNOs for the next 14.0 days since TLE Epoch: 1/29/2022
Index Date Time (GOES-17) GOES-17 Lat,Lon METOP-B Lat,Lon Distance(km) Time Diff (sec)
1 01/29/2022 18:32:57 -0.01,-137.22 -0.31,-135.98 142.61 80
2 01/31/2022 06:54:37 0.00,-137.21 -0.74,-140.57 382.97 80
3 02/01/2022 06:31:18 -0.00,-137.20 0.36,-135.58 185.65 80
4 02/02/2022 18:52:49 0.02,-137.21 0.66,-140.14 333.62 80
5 02/03/2022 18:29:30 0.02,-137.20 -0.45,-135.14 234.89 80
6 02/05/2022 06:51:10 -0.02,-137.18 -0.60,-139.74 291.01 80
7 02/06/2022 06:27:51 -0.02,-137.18 0.50,-134.74 277.26 80
8 02/07/2022 18:49:22 0.02,-137.18 0.52,-139.30 243.07 80
9 02/08/2022 18:26:03 0.02,-137.17 -0.64,-134.32 324.81 80
10 02/10/2022 06:45:04 -0.02,-137.14 -0.40,-138.92 202.26 80
11 02/11/2022 06:27:04 -0.01,-137.12 0.70,-133.92 364.93 80
